Home   Weather   Richmond   Past weeks
Flag for Canada

Past Weather in Richmond, British Columbia, Canada — Yesterday and Last 2 Weeks

Now
34 °F

Mostly cloudy.


Feels Like: 31 °F
Forecast: 37 / 34 °F
Wind: 3 mph from East

Location: Vancouver International Airport

Current Time: Feb 19, 2019 at 5:26:38 am

Latest Report: Feb 19, 2019 at 4:48 am


Visibility: 15 mi

Pressure: 30.24 "Hg

Humidity: 93%

Dew Point: 32 °F

Location of RichmondLocation

Past Weather in Richmond — Graph

°F

Richmond Temperature Yesterday

Maximum temperature yesterday: 39 °F (at 2:00 pm)
Minimum temperature yesterday: 28 °F (at 1:00 am)
Average temperature yesterday: 34 °F

High & Low Weather Summary for the Past Weeks

 TemperatureHumidityPressure
High43 °F (Feb 17, 1:00 pm)100% (Feb 10, 9:27 pm)30.43 "Hg (Feb 10, 9:27 pm)
Low18 °F (Feb 5, 6:00 am)28% (Feb 9, 11:00 am)29.17 "Hg (Feb 14, 3:00 pm)
Average30 °F80%29.86 "Hg
* Reported Feb 4 4:00 am — Feb 19 4:00 am, Richmond. Weather by CustomWeather, © 2019

Note: Actual official high and low records may vary slightly from our data, if they occured in-between our weather recording intervals... More about our weather records

Advertising

Richmond Weather History for the Previous 24 Hours

Scroll right to see more
 ConditionsComfort  
Time TempWeatherWind HumidityBarometerVisibility
4:00 am
Tue, Feb 19
34 °FLight snow. Mostly cloudy.3 mph87%30.27 "Hg15 mi
3:00 am36 °FOvercast.3 mph75%30.29 "Hg15 mi
2:00 am36 °FOvercast.3 mph70%30.29 "Hg15 mi
1:00 am36 °FMostly cloudy.5 mph65%30.31 "Hg20 mi
12:00 am36 °FMostly cloudy.5 mph65%30.32 "Hg20 mi
11:00 pm
Mon, Feb 18
36 °FMostly cloudy.7 mph65%30.32 "Hg20 mi
10:00 pm36 °FMostly cloudy.5 mph65%30.33 "Hg20 mi
9:00 pm36 °FMostly cloudy.6 mph65%30.35 "Hg20 mi
8:00 pm36 °FMostly cloudy.3 mph65%30.35 "Hg20 mi
7:00 pm36 °FOvercast.6 mph65%30.36 "Hg20 mi
6:30 pm36 °FOvercast.3 mph70%30.37 "Hg20 mi
6:00 pm37 °FMostly cloudy.3 mph56%30.37 "Hg20 mi
5:30 pm36 °FPartly sunny.3 mph65%30.36 "Hg20 mi
5:00 pm37 °FPartly sunny.6 mph60%30.35 "Hg20 mi
4:00 pm37 °FOvercast.6 mph60%30.36 "Hg20 mi
3:00 pm37 °FMostly cloudy.5 mph56%30.38 "Hg20 mi
2:00 pm39 °FOvercast.5 mph52%30.39 "Hg20 mi
1:00 pm37 °FMore clouds than sun.6 mph56%30.40 "Hg20 mi
12:00 pm36 °FMostly cloudy.8 mph60%30.42 "Hg20 mi
11:00 am36 °FMore clouds than sun.7 mph60%30.43 "Hg20 mi
10:00 am34 °FMore clouds than sun.8 mph65%30.42 "Hg20 mi
9:00 am34 °FMostly cloudy.8 mph65%30.41 "Hg20 mi
8:00 am32 °FMostly cloudy.8 mph69%30.41 "Hg20 mi
7:00 am32 °FMostly cloudy.9 mph69%30.40 "Hg15 mi
6:00 am32 °FMostly cloudy.6 mph69%30.39 "Hg20 mi
5:00 am30 °FPassing clouds.7 mph69%30.39 "Hg20 mi
Weather by CustomWeather, © 2019

See weather overview